Simultaneous Nadir Overpasses (SNOs) Predictions

Prediction of SNOs between GOES-16 and FY3D Satellite Orbit:

Table of predicted SNOs for the next 14.0 days since TLE Epoch: 8/24/2019
Index Date Time (GOES-16) GOES-16 Lat,Lon FY3D Lat,Lon Distance(km) Time Diff (sec)
1 08/25/2019 06:42:39 -0.04, -75.21 0.59, -77.96 314.18 80
2 08/26/2019 06:21:04 -0.04, -75.21 -0.46, -73.40 207.05 80
3 08/27/2019 18:42:45 0.05, -75.23 -0.70, -78.64 388.44 80
4 08/28/2019 18:26:29 0.05, -75.23 0.30, -74.06 133.11 80
5 08/30/2019 06:48:01 -0.05, -75.23 0.85, -79.27 460.82 80
6 08/31/2019 06:26:27 -0.05, -75.24 -0.20, -74.71 61.22 80
7 09/02/2019 18:29:12 0.05, -75.28 0.03, -75.37 10.72 80
8 09/05/2019 06:34:29 -0.06, -75.30 0.12, -76.01 80.58 80
9 09/06/2019 06:12:54 -0.06, -75.32 -0.94, -71.44 442.15 80




NCC Satellite Simultaneous Nadir Overpasses (SNOs) Prediction Service
